Weather History for Branson, MO

Change the Weather History Date:

Sunday, November 25, 2012

  Actual Average (KHRO) Record (KHRO)
Temperature  
Mean Temperature 49 °F 44 °F  
Max Temperature 66 °F 54 °F 77 °F (1990)
Min Temperature 32 °F 35 °F 12 °F (1950)
Degree Days  
Heating Degree Days 16 21  
Month to date heating degree days 391  
Since 1 July heating degree days 656  
Cooling Degree Days 0 0  
Month to date cooling degree days 0  
Year to date cooling degree days 1412  
Moisture  
Dew Point 28 °F    
Average Humidity 48    
Maximum Humidity 70    
Minimum Humidity 29    
Precipitation  
Precipitation 0.00 in 0.14 in 2.98 in (1973)
Month to date precipitation 3.58  
Year to date precipitation 40.29  
Snow  
Snow 0.00 in 0.00 in 0.40 in (1996)
Month to date snowfall 0.0  
Since 1 July snowfall 0.1  
Since 1 September snowfall 0.1  
Snow Depth -    
Sea Level Pressure  
Sea Level Pressure 29.97 in    
Wind  
Wind Speed 2 mph (South)    
Max Wind Speed 9 mph    
Max Gust Speed 20 mph    
Visibility 10 miles    
Events      
T = Trace of Precipitation, MM = Missing Value Source: NWS Daily Summary

Daily Weather History Graph

Daily Weather History Graph

Search for Another Location

Airport:

Trip Planner

Search our weather history database for the weather conditions in past years. The results will help you decide how hot, cold, wet, or windy it might be!

Date:

Astronomy

Nov. 25, 2012 Rise Set
Actual Time 7:00 AM CST 4:58 PM CST
Civil Twilight 6:32 AM CST 5:26 PM CST
Nautical Twilight 6:01 AM CST 5:58 PM CST
Astronomical Twilight 5:30 AM CST 6:29 PM CST
Moon 3:13 PM CST (11/25) 4:18 AM CST (11/25)
Length of Visible Light 10h 53m
Length of Day
9h 57m
Waxing Gibbous, 93% of the Moon is Illuminated
Nov 25
Waxing Gibbous
Nov 28
Full
Dec 6
Last Quarter
Dec 13
New
Dec 19
First Quarter

Hourly Weather History & Observations

Time (CST) Temp. Dew Point Humidity Pressure Visibility Wind Dir Wind Speed Gust Speed Precip Events Conditions
12:15 AM 35.6 °F 21.2 °F 56% 30.04 in 10.0 mi Calm Calm - N/A   Partly Cloudy
12:35 AM 35.6 °F 21.2 °F 56% 30.03 in 10.0 mi Calm Calm - N/A   Partly Cloudy
12:55 AM 35.6 °F 19.4 °F 52% 30.03 in 10.0 mi Calm Calm - N/A   Clear
1:15 AM 32.0 °F 23.0 °F 69% 30.03 in 10.0 mi Calm Calm - N/A   Clear
1:35 AM 35.6 °F 21.2 °F 56% 30.02 in 10.0 mi Calm Calm - N/A   Clear
1:55 AM 39.2 °F 19.4 °F 45% 30.01 in 10.0 mi Calm Calm - N/A   Clear
2:15 AM 39.2 °F 19.4 °F 45% 30.01 in 10.0 mi Calm Calm - N/A   Clear
2:35 AM 37.4 °F 23.0 °F 56% 30.02 in 10.0 mi Calm Calm - N/A   Clear
2:55 AM 39.2 °F 19.4 °F 45% 30.00 in 10.0 mi Calm Calm - N/A   Clear
3:15 AM 39.2 °F 19.4 °F 45% 30.00 in 10.0 mi Calm Calm - N/A   Clear
3:35 AM 39.2 °F 19.4 °F 45% 30.00 in 10.0 mi Calm Calm - N/A   Clear
3:55 AM 37.4 °F 21.2 °F 52% 30.00 in 10.0 mi Calm Calm - N/A   Clear
4:15 AM 35.6 °F 21.2 °F 56% 30.00 in 10.0 mi Calm Calm - N/A   Clear
4:35 AM 33.8 °F 24.8 °F 70% 29.99 in 10.0 mi Calm Calm - N/A   Clear
4:55 AM 33.8 °F 23.0 °F 65% 29.99 in 10.0 mi Calm Calm - N/A   Clear
5:35 AM 37.4 °F 19.4 °F 48% 29.98 in 10.0 mi Calm Calm - N/A   Partly Cloudy
6:55 AM 35.6 °F 19.4 °F 52% 29.98 in 10.0 mi Calm Calm - N/A   Partly Cloudy
7:45 AM 42.8 °F 21.2 °F 42% 29.98 in 10.0 mi Calm Calm - N/A   Clear
8:45 AM 50.0 °F 19.4 °F 30% 29.98 in 10.0 mi SW 5.8 mph - N/A   Clear
9:45 AM 55.4 °F 23.0 °F 29% 29.98 in 10.0 mi SW 6.9 mph - N/A   Partly Cloudy
10:51 AM 60.8 °F 28.4 °F 29% 29.97 in 10.0 mi SW 9.2 mph 19.6 mph N/A   Clear
11:47 AM 62.6 °F 32.0 °F 32% 29.95 in 10.0 mi West 9.2 mph - N/A   Partly Cloudy
12:45 PM 64.4 °F 33.8 °F 32% 29.92 in 10.0 mi West 8.1 mph - N/A   Partly Cloudy
1:45 PM 66.2 °F 35.6 °F 32% 29.90 in 10.0 mi WSW 9.2 mph - N/A   Partly Cloudy
2:45 PM 66.2 °F 35.6 °F 32% 29.88 in 10.0 mi South 5.8 mph - N/A   Clear
3:55 PM 64.4 °F 35.6 °F 34% 29.88 in 10.0 mi SSW 6.9 mph - N/A   Clear
4:55 PM 60.8 °F 35.6 °F 39% 29.88 in 10.0 mi South 5.8 mph - N/A   Clear
5:50 PM 53.6 °F 37.4 °F 54% 29.90 in 10.0 mi SSE 4.6 mph - N/A   Clear
6:45 PM 55.4 °F 33.8 °F 44% 29.91 in 10.0 mi South 4.6 mph - N/A   Clear
7:50 PM 50.0 °F 32.0 °F 50% 29.93 in 10.0 mi South 4.6 mph - N/A   Clear
8:15 PM 50.0 °F 32.0 °F 50% 29.94 in 10.0 mi South 4.6 mph - N/A   Clear
8:35 PM 50.0 °F 32.0 °F 50% 29.95 in 10.0 mi South 5.8 mph - N/A   Clear
8:45 PM 50.0 °F 32.0 °F 50% 29.95 in 10.0 mi South 4.6 mph - N/A   Clear
8:55 PM 51.8 °F 32.0 °F 47% 29.95 in 10.0 mi South 4.6 mph - N/A   Clear
9:15 PM 50.0 °F 32.0 °F 50% 29.95 in 10.0 mi SSE 5.8 mph - N/A   Clear
9:35 PM 50.0 °F 32.0 °F 50% 29.96 in 10.0 mi South 6.9 mph - N/A   Clear
9:55 PM 50.0 °F 32.0 °F 50% 29.96 in 10.0 mi South 5.8 mph - N/A   Clear
10:15 PM 50.0 °F 32.0 °F 50% 29.95 in 10.0 mi SSE 5.8 mph - N/A   Clear
10:35 PM 50.0 °F 32.0 °F 50% 29.95 in 10.0 mi South 5.8 mph - N/A   Clear
10:55 PM 50.0 °F 32.0 °F 50% 29.96 in 10.0 mi South 5.8 mph - N/A   Clear
11:15 PM 50.0 °F 33.8 °F 54% 29.96 in 10.0 mi South 5.8 mph - N/A   Clear
11:35 PM 50.0 °F 35.6 °F 58% 29.96 in 10.0 mi SSE 3.5 mph - N/A   Clear
11:55 PM 48.2 °F 35.6 °F 62% 29.97 in 10.0 mi SSE 4.6 mph - N/A   Clear